Le nostre stazioni meteo in Italia

Pubblicità
Il mio iltempo24.it
Mt. St.Vincent, Francia (7382): Temperatura & dewpoint: 15.02.2020 04:00:00 - 21.02.2020 04:00:00 (CET)Mt. St.Vincent, Francia (7382): velocità del vento & gusts: 15.02.2020 04:00:00 - 21.02.2020 04:00:00 (CET)Mt. St.Vincent, Francia (7382): direzione del vento: 15.02.2020 04:00:00 - 21.02.2020 04:00:00 (CET)Mt. St.Vincent, Francia (7382): ore di luce: 15.02.2020 04:00:00 - 21.02.2020 04:00:00 (CET)Mt. St.Vincent, Francia (7382): precipitazioni: 15.02.2020 04:00:00 - 21.02.2020 04:00:00 (CET)
Data & Tempo tt [°C] td [°C] ff [km/h] ff [kn] fx [km/h] fx [kn] dd sd [min] rr [mm]
21.02.2020 04:00:00 2,0 0,4 5 3 18 10 NO 0 0,0
21.02.2020 03:00:00 2,8 0,5 11 6 18 10 ONO 0 0,0
21.02.2020 02:00:00 3,8 1,2 5 3 26 14 NNO 0 0,0
21.02.2020 01:00:00 5,8 5,7 18 10 55 30 ONO 0 -
21.02.2020 00:00:00 7,0 4,5 37 20 59 32 O 0 0,0
20.02.2020 23:00:00 6,8 4,8 37 20 59 32 OSO 0 0,0
20.02.2020 22:00:00 6,6 4,1 37 20 55 30 O 0 0,0
20.02.2020 21:00:00 6,4 3,5 28 15 42 23 O 0 0,0
20.02.2020 20:00:00 6,1 3,4 22 12 37 20 ONO 0 0,0
20.02.2020 19:00:00 7,0 4,1 26 14 34 18 O 0 -
20.02.2020 18:00:00 8,9 3,1 22 12 34 18 O 48 0,0
20.02.2020 17:00:00 10,9 3,2 21 11 35 19 OSO 60 0,0
20.02.2020 16:00:00 11,2 3,5 24 13 35 19 O 60 0,0
20.02.2020 15:00:00 11,2 3,9 22 12 37 20 OSO 60 0,0
20.02.2020 14:00:00 10,4 3,4 26 14 39 21 OSO 60 0,0
20.02.2020 13:00:00 9,6 3,6 18 10 35 19 SO 60 -
20.02.2020 12:00:00 8,6 3,0 22 12 35 19 SO 60 0,0
20.02.2020 11:00:00 7,9 3,5 18 10 28 15 OSO 54 0,0
20.02.2020 10:00:00 6,8 3,6 15 8 24 13 SO 60 0,0
20.02.2020 09:00:00 5,9 2,9 15 8 24 13 SSO 0 0,0
20.02.2020 08:00:00 5,1 3,1 15 8 31 17 OSO 0 0,0
20.02.2020 07:00:00 4,8 3,3 21 11 29 16 SO 0 -
20.02.2020 06:00:00 4,5 3,2 16 9 28 15 SSO 0 0,0
20.02.2020 05:00:00 4,6 3,6 16 9 29 16 SO 0 0,0
20.02.2020 04:00:00 4,4 3,5 15 8 29 16 OSO 0 0,0
20.02.2020 03:00:00 4,5 3,6 21 11 29 16 SO 0 0,0
20.02.2020 02:00:00 3,8 3,4 16 9 37 20 SO 0 0,0
20.02.2020 01:00:00 3,8 2,8 18 10 31 17 SO 0 -
20.02.2020 00:00:00 3,9 2,4 15 8 24 13 S 0 0,0
19.02.2020 23:00:00 4,1 2,1 13 7 18 10 SSE 0 0,0
19.02.2020 22:00:00 4,3 2,0 11 6 16 9 S 0 0,0
19.02.2020 21:00:00 4,1 2,1 8 4 16 9 S 0 0,0
19.02.2020 20:00:00 4,6 2,1 15 8 22 12 O 0 0,0
19.02.2020 19:00:00 4,7 1,7 11 6 21 11 OSO 0 -
19.02.2020 18:00:00 4,9 1,7 16 9 37 20 O 0 0,0
19.02.2020 17:00:00 5,2 1,5 22 12 35 19 O 0 0,0
19.02.2020 16:00:00 5,6 1,7 18 10 37 20 ONO 0 0,0
19.02.2020 15:00:00 5,7 1,2 18 10 41 22 ONO 0 0,0
19.02.2020 14:00:00 5,6 1,5 28 15 50 27 O 0 0,0
19.02.2020 13:00:00 6,0 1,7 28 15 48 26 ONO 48 -
19.02.2020 12:00:00 5,0 2,7 22 12 52 28 O 12 0,0
19.02.2020 11:00:00 4,5 3,0 31 17 50 27 ONO 6 0,0
19.02.2020 10:00:00 4,1 4,1 29 16 48 26 ONO 6 0,0
19.02.2020 09:00:00 3,9 3,9 35 19 67 36 O 0 0,8
19.02.2020 08:00:00 3,7 3,7 48 26 72 39 O 0 0,6
19.02.2020 07:00:00 3,5 3,4 50 27 72 39 O 0 -
19.02.2020 06:00:00 3,3 3,2 44 24 70 38 OSO 0 0,4
19.02.2020 05:00:00 3,4 2,5 44 24 67 36 OSO 0 0,2
19.02.2020 04:00:00 3,5 2,2 44 24 67 36 O 0 0,0
19.02.2020 03:00:00 3,6 2,1 42 23 63 34 O 0 0,0
19.02.2020 02:00:00 3,9 2,1 41 22 65 35 O 0 0,0
19.02.2020 01:00:00 4,1 2,1 41 22 61 33 O 0 -
19.02.2020 00:00:00 4,1 2,0 34 18 50 27 OSO 0 0,0
18.02.2020 23:00:00 3,7 1,6 29 16 44 24 OSO 0 0,0
18.02.2020 22:00:00 4,3 1,7 24 13 39 21 OSO 0 0,0
18.02.2020 21:00:00 4,2 1,6 29 16 39 21 O 0 0,0
18.02.2020 20:00:00 3,6 2,3 18 10 37 20 O 0 0,0
18.02.2020 19:00:00 4,5 1,9 16 9 29 16 OSO 0 -
18.02.2020 18:00:00 5,0 1,5 21 11 34 18 O 0 0,0
18.02.2020 17:00:00 5,5 1,6 24 13 35 19 O 6 0,0
18.02.2020 16:00:00 5,7 1,8 21 11 34 18 O 12 0,0
18.02.2020 15:00:00 7,3 2,4 18 10 39 21 O 54 0,0
18.02.2020 14:00:00 6,9 2,2 26 14 41 22 O 36 0,0
18.02.2020 13:00:00 6,5 2,0 26 14 37 20 O 36 -
18.02.2020 12:00:00 4,9 2,9 16 9 34 18 O 24 0,0
18.02.2020 11:00:00 4,3 3,0 21 11 34 18 O 24 0,0
18.02.2020 10:00:00 2,7 2,4 24 13 34 18 O 0 0,0
18.02.2020 09:00:00 2,4 2,3 22 12 41 22 O 0 0,0
18.02.2020 08:00:00 2,3 2,2 26 14 41 22 O 0 0,0
18.02.2020 07:00:00 2,6 2,2 26 14 39 21 O 0 -
18.02.2020 06:00:00 2,7 2,1 29 16 42 23 O 0 0,0
18.02.2020 05:00:00 2,7 2,3 26 14 39 21 O 0 0,0
18.02.2020 04:00:00 2,5 2,2 28 15 39 21 O 0 0,0
18.02.2020 03:00:00 2,6 2,0 28 15 44 24 O 0 0,0
18.02.2020 02:00:00 3,1 2,2 34 18 48 26 O 0 0,0
18.02.2020 01:00:00 3,8 2,8 34 18 48 26 O 0 -
18.02.2020 00:00:00 4,1 2,9 35 19 55 30 O 0 0,0
17.02.2020 23:00:00 5,0 3,7 35 19 59 32 O 0 0,0
17.02.2020 22:00:00 4,7 3,8 35 19 52 28 O 0 0,2
17.02.2020 21:00:00 4,6 3,9 34 18 55 30 O 0 0,6
17.02.2020 20:00:00 5,5 3,7 41 22 63 34 O 0 0,0
17.02.2020 19:00:00 6,2 4,5 37 20 57 31 O 0 -
17.02.2020 18:00:00 6,3 5,3 39 21 57 31 O 0 0,0
17.02.2020 17:00:00 5,9 5,8 34 18 48 26 OSO 0 0,4
17.02.2020 16:00:00 5,9 5,0 35 19 57 31 O 0 0,0
17.02.2020 15:00:00 5,9 4,5 35 19 57 31 O 0 0,0
17.02.2020 14:00:00 5,6 4,6 41 22 63 34 O 0 0,2
17.02.2020 13:00:00 5,8 5,7 48 26 65 35 O 0 -
17.02.2020 12:00:00 6,1 6,1 41 22 55 30 OSO 0 1,0
17.02.2020 11:00:00 6,4 6,4 39 21 54 29 O 0 2,0
17.02.2020 10:00:00 6,5 6,5 35 19 54 29 O 0 1,0
17.02.2020 09:00:00 7,2 6,9 29 16 46 25 O 0 0,0
17.02.2020 08:00:00 7,9 6,7 16 9 22 12 O 0 0,0
17.02.2020 07:00:00 8,0 6,9 11 6 21 11 O 0 -
17.02.2020 06:00:00 8,1 6,9 16 9 26 14 O 0 0,0
17.02.2020 05:00:00 9,1 5,6 21 11 41 22 O 0 0,0
17.02.2020 04:00:00 11,4 4,6 22 12 44 24 SSO 0 0,0
17.02.2020 03:00:00 11,5 4,7 31 17 48 26 SSO 0 0,0
17.02.2020 02:00:00 11,2 4,9 34 18 48 26 S 0 0,0
17.02.2020 01:00:00 11,3 4,5 29 16 48 26 S 0 -
17.02.2020 00:00:00 11,7 4,4 29 16 50 27 SSO 0 0,0
16.02.2020 23:00:00 11,1 4,8 29 16 48 26 SO 0 0,0
16.02.2020 22:00:00 11,9 4,6 29 16 46 25 SSO 0 0,0
16.02.2020 21:00:00 11,5 4,9 29 16 39 21 S 0 0,0
16.02.2020 20:00:00 11,3 5,4 31 17 41 22 S 0 0,0
16.02.2020 19:00:00 11,2 6,1 26 14 39 21 S 0 -
16.02.2020 18:00:00 11,3 6,6 31 17 44 24 SSE 0 0,0
16.02.2020 17:00:00 11,7 6,8 29 16 44 24 SSE 0 0,0
16.02.2020 16:00:00 12,1 6,8 31 17 48 26 SSE 0 0,0
16.02.2020 15:00:00 13,5 6,4 31 17 46 25 SSE 42 0,0
16.02.2020 14:00:00 13,3 5,4 29 16 42 23 SSE 6 0,0
16.02.2020 13:00:00 12,5 4,2 26 14 41 22 SSE 24 -
16.02.2020 12:00:00 12,2 2,6 28 15 41 22 SSE 18 0,0
16.02.2020 11:00:00 11,1 1,9 26 14 41 22 SSE 0 0,0
16.02.2020 10:00:00 10,5 1,0 26 14 37 20 SSE 24 0,0
16.02.2020 09:00:00 10,5 1,0 26 14 44 24 S 24 0,0
16.02.2020 08:00:00 9,3 0,5 28 15 41 22 SSE 0 0,0
16.02.2020 07:00:00 9,6 0,2 26 14 35 19 SSE 0 -
16.02.2020 06:00:00 9,9 0,2 22 12 37 20 S 0 0,0
16.02.2020 05:00:00 9,9 0,2 24 13 35 19 S 0 0,0
16.02.2020 04:00:00 10,4 0,7 22 12 34 18 SSE 0 0,0
16.02.2020 03:00:00 11,5 0,3 21 11 34 18 S 0 0,0
16.02.2020 02:00:00 11,0 1,0 24 13 34 18 S 0 0,0
16.02.2020 01:00:00 11,6 0,9 22 12 31 17 S 0 -
16.02.2020 00:00:00 11,4 1,3 24 13 35 19 SSO 0 0,0
15.02.2020 23:00:00 11,1 1,9 22 12 39 21 OSO 0 0,0
15.02.2020 22:00:00 11,3 2,3 26 14 41 22 SO 0 0,0
15.02.2020 21:00:00 11,9 3,4 26 14 39 21 SO 0 0,0
15.02.2020 20:00:00 11,0 2,8 21 11 29 16 S 0 0,0
15.02.2020 19:00:00 10,8 3,6 18 10 29 16 S 0 -
15.02.2020 18:00:00 9,8 4,0 18 10 22 12 SSE 0 0,0
15.02.2020 17:00:00 9,4 4,4 13 7 18 10 E 42 0,0
15.02.2020 16:00:00 11,2 5,1 9 5 16 9 ESE 60 0,0
15.02.2020 15:00:00 12,4 4,8 5 3 18 10 SSO 60 0,0
15.02.2020 14:00:00 10,7 3,7 11 6 24 13 SSE 60 0,0
15.02.2020 13:00:00 9,8 3,7 11 6 21 11 SSE 60 -
15.02.2020 12:00:00 8,9 3,1 9 5 15 8 SE 60 0,0
15.02.2020 11:00:00 7,6 2,1 11 6 26 14 SSE 54 0,0
15.02.2020 10:00:00 6,8 2,3 15 8 22 12 SE 54 0,0
15.02.2020 09:00:00 5,2 1,3 11 6 21 11 S 48 0,0
15.02.2020 08:00:00 4,1 1,1 15 8 26 14 S 0 0,0
15.02.2020 07:00:00 4,1 1,1 16 9 24 13 SSE 0 -
15.02.2020 06:00:00 4,3 1,3 21 11 28 15 SSE 0 0,0
15.02.2020 05:00:00 4,1 1,3 21 11 24 13 SE 0 0,0
15.02.2020 04:00:00 4,5 1,3 11 6 16 9 SE 0 0,0

tt = Temperatura
td = dewpoint
ff = velocità del vento
fx = gusts
dd = direzione del vento
sd = ore di luce
rr = precipitazioni

Stazioni seguenti

WeatherPro
AMSI
MeteoEarth